Theta_e
317 316 315 314 313 313 315 317 316 316 316 314 314 313 312 311 311 308 307 309 310 309 308 308 308 308 308 310 311 309 306 304 305 306 306 307 306 305 303 302 302 301
317 317 316 315 314 314 315 315 314 314 314 313 314 313 312 312 310 308 307 307 307 305 303 302 302 303 304 305 305 304 303 303 303 303 303 304 303 301 301 300 300 299
318 317 316 314 313 314 315 314 313 313 312 312 312 312 312 311 310 309 309 308 308 306 303 302 303 304 304 303 304 304 304 303 303 302 302 303 303 302 301 301 302 301
318 317 315 313 313 314 315 314 313 313 312 311 311 311 312 311 310 310 310 310 309 308 306 305 304 303 303 303 304 304 304 303 302 302 302 303 303 303 303 302 303 303
318 317 315 313 312 314 316 315 313 312 311 310 310 311 311 311 311 311 311 311 310 310 310 308 307 304 303 304 306 305 305 304 303 302 302 303 303 303 303 302 302 303
317 318 316 314 313 314 316 316 314 313 311 309 309 310 310 310 310 311 311 311 311 311 311 311 310 308 305 306 307 307 307 306 305 304 304 303 303 303 304 303 302 303
315 317 318 315 313 314 317 317 315 314 313 311 310 309 309 309 309 310 310 311 310 311 312 311 311 310 308 307 308 308 309 309 307 306 306 305 305 304 304 304 303 303
312 315 318 318 316 315 317 317 317 316 314 313 312 311 310 308 308 310 310 310 309 310 312 312 311 311 309 308 309 309 310 309 309 308 308 308 307 307 305 305 305 305
312 313 316 319 318 317 318 318 317 317 316 314 313 312 311 310 309 310 311 311 309 309 311 311 311 311 310 309 310 310 310 310 310 309 309 309 309 308 308 306 306 306
314 314 316 318 318 318 318 318 318 318 317 316 314 314 312 311 311 311 312 313 311 309 309 309 310 311 310 310 310 310 310 310 310 310 310 310 309 309 309 308 308 307
315 316 317 317 317 317 317 318 318 318 317 317 315 314 313 312 312 312 312 313 313 311 310 309 309 310 310 311 311 311 310 310 310 310 311 310 310 310 310 309 309 309
315 315 316 317 316 317 317 318 318 318 317 317 316 315 314 313 313 313 313 314 314 313 312 312 311 311 311 311 312 312 311 311 311 310 311 311 311 310 310 310 310 310
315 316 317 318 317 317 317 317 318 318 317 317 316 316 315 314 314 314 314 314 314 314 314 314 314 314 313 313 313 312 312 312 312 311 311 311 312 312 311 311 311 311
317 317 318 319 319 318 318 318 317 317 317 317 317 316 316 315 315 315 315 315 316 315 314 315 315 314 314 315 316 315 314 314 313 314 314 314 314 313 313 312 312 312
317 318 318 319 319 319 318 318 318 317 317 317 317 316 316 316 315 315 315 315 315 315 314 314 314 314 315 317 317 317 316 315 315 315 315 315 316 315 315 315 314 314
318 319 319 319 319 318 318 318 318 318 318 317 318 317 316 316 316 315 315 315 314 313 312 313 313 314 316 316 317 316 316 317 317 316 316 315 316 316 316 316 316 316
318 319 319 319 319 318 318 318 318 318 317 317 318 317 317 316 315 314 314 315 314 312 312 313 315 315 316 317 317 316 316 315 315 315 316 316 317 317 317 317 317 317
318 318 317 318 318 317 317 317 317 317 317 317 318 317 317 316 315 314 314 315 314 312 313 315 316 316 317 317 315 313 311 309 308 310 311 314 316 317 317 318 318 317
317 317 317 317 317 317 318 317 317 317 317 318 318 317 316 316 315 315 315 314 314 314 315 316 317 317 317 314 311 310 308 306 306 310 312 314 315 315 316 316 317 317
316 317 317 317 318 317 317 317 317 317 317 317 317 316 316 316 316 315 315 316 315 316 316 316 317 316 315 312 310 310 308 305 306 310 312 313 313 314 314 314 314 314
314 316 318 318 318 317 317 317 316 316 317 317 316 316 317 317 317 317 317 317 317 316 316 316 316 315 312 311 311 310 308 306 306 308 308 309 311 311 312 312 312 312
310 313 315 316 317 316 316 316 317 316 316 317 317 318 318 318 318 317 317 316 316 316 316 316 315 313 312 311 311 310 309 308 307 307 307 307 309 309 310 311 311 311
307 309 312 314 315 315 315 316 317 317 316 317 318 318 317 316 316 317 316 316 316 316 316 314 313 312 312 311 311 310 309 308 308 308 307 307 308 309 309 309 309 309
306 308 310 311 313 314 315 315 316 316 316 317 317 316 315 315 315 315 315 315 315 314 314 313 312 312 312 311 311 310 309 308 308 308 308 307 307 307 307 307 307 307
305 306 307 308 309 310 311 311 310 311 312 312 312 312 312 313 312 312 312 313 313 312 312 312 312 312 311 311 310 310 309 308 308 307 307 307 306 306 305 305 305 304
303 304 306 307 307 307 307 307 307 307 307 308 308 308 308 309 310 311 311 312 312 312 312 312 312 311 310 310 310 309 308 307 307 307 306 306 305 304 304 303 303 302
Wind_Speed
15 13 12 12 11 12 14 15 15 13 12 12 12 12 11 10 9 9 10 11 11 11 11 11 11 11 11 11 10 9 10 11 11 11 11 12 12 12 13 13 12 12
17 14 11 9 9 11 12 13 13 13 12 13 13 12 12 11 10 10 11 12 12 13 13 13 13 13 12 12 11 11 12 12 12 12 12 13 13 13 13 13 13 13
17 13 9 8 6 10 13 13 12 12 12 12 13 13 13 12 11 11 11 11 12 12 13 13 12 12 12 12 12 12 13 14 14 13 13 14 13 13 13 13 13 13
17 11 7 9 6 11 17 16 14 13 12 12 13 13 14 13 13 12 12 11 10 11 11 11 11 11 12 11 10 11 13 14 14 14 15 15 14 13 13 13 13 13
21 18 15 15 12 12 19 20 17 15 13 12 12 13 13 14 13 12 12 11 10 9 9 9 9 9 10 9 9 10 11 12 12 12 13 15 14 13 13 12 13 13
24 22 22 22 19 18 20 22 20 17 14 12 12 13 13 13 13 12 12 11 10 9 9 8 8 8 8 7 7 8 8 9 10 9 10 11 12 11 11 11 12 13
23 23 26 26 25 23 21 22 23 19 16 14 12 14 14 13 14 13 12 12 11 10 10 10 9 8 8 7 6 6 6 6 7 6 6 7 8 9 9 10 10 10
24 25 31 31 28 27 24 23 23 22 20 17 14 14 15 15 15 14 13 12 13 12 11 11 11 10 8 8 7 6 5 5 5 5 4 4 5 6 6 7 7 7
27 26 33 33 27 26 25 24 24 24 23 21 18 16 17 17 16 15 15 13 13 14 13 12 11 11 10 9 8 7 6 6 5 5 5 4 4 4 5 5 5 5
33 29 31 29 22 22 24 24 24 24 24 23 22 21 20 20 19 17 17 16 14 14 14 13 12 11 10 11 11 10 9 8 7 6 6 6 5 5 5 6 6 5
35 33 28 24 22 24 25 24 23 23 24 24 23 22 20 20 20 19 18 16 15 14 14 13 12 11 11 12 14 14 13 11 10 9 8 8 8 8 7 8 8 8
30 30 25 22 24 26 25 23 22 22 23 24 23 22 19 17 16 16 14 12 11 12 12 11 11 11 12 13 14 16 16 14 13 12 11 11 10 11 10 10 11 11
25 25 23 20 22 25 23 21 21 21 22 23 23 22 20 18 16 14 13 9 7 8 10 11 13 14 15 14 14 17 18 18 16 15 14 13 13 13 13 13 13 13
23 22 21 19 20 23 23 21 20 19 18 19 20 20 19 19 17 13 13 10 8 7 10 15 18 17 17 17 17 18 18 18 17 17 15 15 16 16 16 16 16 16
21 21 20 19 18 20 22 22 21 19 16 15 18 19 20 19 14 9 12 12 8 8 12 17 20 19 17 16 16 16 15 14 15 15 16 16 16 17 17 18 19 19
20 20 21 21 21 22 24 24 22 20 19 18 21 22 23 21 16 15 18 17 13 13 17 21 23 23 19 16 14 13 12 11 11 12 13 14 14 15 17 18 19 20
19 20 22 24 25 26 27 26 24 23 22 22 25 25 24 22 21 24 26 24 21 22 26 27 27 25 20 16 14 11 8 7 7 8 9 10 12 13 15 16 17 17
18 19 20 21 20 20 22 23 22 22 23 25 28 27 23 21 22 25 26 26 27 27 27 27 25 20 16 12 8 4 4 4 5 6 7 9 11 12 14 15 16 16
14 17 18 19 20 20 20 20 20 21 25 28 27 25 21 19 21 24 25 25 26 26 25 23 18 14 10 6 3 2 5 6 5 5 5 5 6 8 10 12 13 14
10 14 16 18 20 21 21 22 23 23 24 25 23 20 18 17 19 21 22 23 22 22 21 19 15 11 8 5 0 5 6 6 5 5 6 6 6 6 6 6 8 9
10 13 14 16 18 18 20 22 23 22 21 21 20 19 18 17 18 19 19 19 18 17 16 15 12 10 7 3 2 4 6 7 8 8 9 9 10 10 9 8 7 6
7 11 14 16 17 16 17 19 21 21 20 19 20 20 18 17 17 17 17 15 14 13 12 11 11 9 5 2 1 3 5 6 9 10 11 11 11 10 10 10 8 6
8 7 10 14 16 16 16 18 19 20 20 20 20 19 17 16 15 15 14 12 11 12 12 12 10 8 6 4 2 1 3 5 7 8 9 10 10 10 9 9 7 5
8 5 3 7 9 10 11 13 14 15 16 16 17 16 14 13 13 13 13 13 13 13 13 11 10 9 7 5 3 2 3 4 5 6 6 6 7 7 7 6 5 3
9 6 2 4 8 10 11 12 13 14 14 15 16 16 17 16 15 15 15 15 14 13 13 12 11 9 7 5 3 3 3 4 4 4 4 3 3 3 3 3 3 3
8 8 3 3 7 11 13 14 14 14 15 16 16 17 17 17 16 16 16 15 14 13 12 11 10 8 7 5 3 3 3 3 3 3 2 1 1 1 2 3 4 5
Wind_Direction
186 184 182 179 178 179 180 181 178 177 180 177 175 175 169 164 164 162 160 159 159 157 152 149 145 141 142 145 144 137 127 119 117 119 117 112 110 108 105 103 103 104
185 181 183 180 186 195 193 192 189 184 189 189 184 185 182 176 173 166 158 155 152 148 145 143 141 138 138 142 143 136 130 123 119 119 114 110 110 107 102 100 102 103
175 172 170 160 187 224 216 204 201 197 196 197 192 190 189 182 176 171 163 159 153 148 148 146 144 143 140 140 141 137 132 127 124 122 117 114 115 113 106 102 104 105
176 180 180 169 194 250 239 218 208 206 203 204 199 193 193 188 182 179 173 169 165 156 154 152 150 149 147 143 140 137 133 129 128 126 122 119 119 118 114 111 110 109
195 196 201 202 202 227 234 224 215 212 208 209 208 201 200 196 191 188 183 181 179 172 167 163 158 156 154 151 144 140 137 134 133 133 128 125 124 123 121 120 119 117
205 202 205 213 214 219 229 225 219 217 211 212 216 211 209 206 200 199 196 194 193 190 190 184 176 170 166 164 157 149 146 140 140 141 136 130 128 128 128 128 125 123
205 214 218 224 224 225 230 225 221 222 216 214 221 220 218 214 209 206 206 207 208 206 204 201 196 190 184 182 177 167 161 154 151 151 145 138 134 132 134 137 134 129
199 216 224 230 232 229 226 224 224 226 220 215 219 224 225 222 216 211 209 213 217 216 215 211 209 206 203 203 203 200 192 182 176 171 168 164 156 149 146 149 152 143
203 216 225 230 236 232 226 224 225 227 226 220 215 219 225 224 220 214 214 218 220 222 223 220 217 218 222 225 226 228 225 217 214 209 209 212 203 190 178 174 178 168
207 217 226 229 234 235 232 228 225 227 231 226 219 217 218 219 220 218 219 220 221 224 225 224 226 230 238 245 248 249 248 243 240 239 240 242 241 236 225 218 217 210
211 218 226 228 229 233 236 231 225 226 230 230 227 221 216 216 216 217 221 225 226 229 231 233 235 235 238 247 256 259 258 257 257 255 258 260 258 255 252 248 248 243
216 221 225 228 229 233 235 229 224 224 224 227 229 225 218 212 208 210 215 223 233 235 240 251 250 242 242 245 254 263 263 261 262 262 265 267 266 264 263 263 265 263
219 221 223 227 232 234 232 225 222 223 221 222 223 220 214 207 204 206 205 217 259 256 251 269 268 259 261 262 267 271 266 261 261 262 264 267 269 271 269 269 271 271
221 222 224 226 228 227 223 219 219 216 210 211 212 210 207 200 199 205 209 225 271 272 257 267 269 264 267 275 283 281 269 262 263 264 267 269 269 270 270 270 270 270
220 220 221 221 217 211 207 206 205 195 190 200 208 204 194 183 180 198 209 215 251 280 261 256 259 264 272 283 290 285 273 271 271 271 272 272 270 270 269 269 268 268
218 216 215 214 210 201 195 196 195 188 190 205 211 203 193 190 203 224 223 223 247 261 244 237 247 261 274 287 289 282 278 278 275 273 271 269 268 268 265 264 263 263
209 208 208 207 204 197 192 191 194 198 202 206 206 200 198 207 220 223 223 226 229 225 225 235 248 259 273 283 279 274 279 280 277 277 273 271 271 270 269 268 265 264
199 196 195 195 191 185 182 184 192 203 207 202 199 202 209 219 219 212 214 221 219 218 228 240 248 258 270 272 261 268 309 312 301 287 275 272 273 273 276 277 276 274
198 188 184 186 186 184 188 200 212 220 214 206 206 213 220 222 215 210 213 220 223 226 232 237 244 256 255 234 210 356 351 341 328 313 302 295 289 285 284 285 286 285
215 195 186 188 192 194 200 214 225 226 215 209 213 216 214 210 209 211 216 222 227 230 230 234 241 238 213 185 53 1 9 12 8 8 14 14 7 355 340 327 316 306
242 219 207 205 208 208 208 215 223 224 216 212 214 212 209 207 209 215 222 229 234 235 235 234 225 204 186 175 355 7 25 33 32 32 29 25 22 19 13 7 358 340
280 243 231 228 225 220 216 221 226 226 220 214 209 206 207 212 216 223 229 232 233 231 224 212 196 186 188 207 332 9 20 31 33 30 27 23 21 19 16 12 8 357
339 279 245 236 234 232 231 229 226 220 215 211 208 209 213 218 218 218 218 215 210 204 195 188 187 192 201 204 195 20 29 38 35 29 27 23 18 16 15 13 11 4
7 338 270 221 215 215 214 209 200 196 195 195 196 195 192 191 189 185 184 184 183 181 181 187 196 200 197 190 168 110 62 52 46 39 33 26 20 17 16 17 24 33
26 14 337 192 165 156 159 161 158 156 157 159 162 162 160 163 167 168 168 171 176 180 186 194 199 196 187 178 157 120 84 66 58 46 38 36 29 25 33 47 62 82
30 35 26 203 176 161 159 161 158 152 150 151 151 150 151 155 160 164 167 171 177 184 189 192 194 189 181 170 153 131 109 91 72 51 50 67 82 99 105 112 118 117